Location: ???????
(55.3432°N, 38.0985°E)
Time: 06:31:35
(UTC+00:00)

Daily predictions for brighter satellites

Satellite Brightness Start Highest point End
(mag) Time Altitude Azimuth Time Altitude Azimuth Time Altitude Azimuth
BREEZE-M DEB (TANK) 4.0 14:51:32 10° WSW 14:54:10 38° S 15:00:07 10° ESE
AQUARIUS 4.1 14:55:01 10° SSE 14:59:26 82° ENE 15:03:52 10° NNW
Cosmos 2082 Rocket 3.6 14:55:34 10° WSW 15:00:40 33° NW 15:05:49 10° NNE
CZ-2D R/B 3.9 14:58:27 10° SE 15:02:03 36° ENE 15:05:46 10° N
Cosmos 192 4.3 14:57:16 10° NNW 15:02:08 67° ENE 15:07:00 10° SE
Cosmos 2233 Rocket 4.1 14:56:42 10° N 15:02:52 55° ENE 15:09:01 10° SSE
Cosmos 2242 Rocket 3.7 15:01:22 10° S 15:05:37 53° E 15:09:54 10° NNE
ATLAS 5 CENTAUR R/B 3.0 15:03:43 10° WNW 15:07:36 43° SW 15:12:21 10° SSE
Meteor 1-21 Rocket 4.4 15:01:53 10° S 15:07:41 60° E 15:13:31 10° NNE
Cosmos 1725 Rocket 4.0 15:02:45 10° N 15:09:02 79° ENE 15:15:19 10° SSE
Cosmos 2297 Rocket 3.6 15:06:38 10° SE 15:10:08 17° E 15:13:38 10° ENE
NOAA 6 4.5 15:05:50 10° SE 15:10:37 41° ENE 15:15:27 10° N
In-Cosmos 22 Rocket 4.2 15:05:14 10° S 15:10:43 76° E 15:16:25 10° NNE
IRS-1C 4.4 15:05:35 10° SSE 15:10:55 79° WSW 15:16:17 10° NNW
SAR-Lupe-4 3.5 15:07:25 10° SSE 15:10:56 62° ENE 15:14:29 10° N
Spot 4 Rocket 4.2 15:07:11 10° SE 15:12:05 49° ENE 15:17:00 10° N
Meteor 2-16 Rocket 4.4 15:06:24 10° S 15:12:27 71° E 15:18:31 10° NNE
Cosmos 158 Rocket 4.3 15:09:22 10° S 15:13:51 38° ESE 15:18:22 10° NE
SL-08 R/B 4.4 15:09:32 10° N 15:15:46 73° ENE 15:21:51 10° SSE
UNK 3.7 15:11:35 10° NNE 15:16:10 86° ESE 15:20:45 10° SSW
Cosmos 1674 Rocket 4.1 15:12:16 10° SSE 15:16:18 37° E 15:20:22 10° NNE
SeaSat 1 3.0 15:11:52 10° SSE 15:16:43 63° WSW 15:21:37 10° NW
Cosmos 1356 Rocket 3.2 15:13:29 10° N 15:17:24 64° ENE 15:21:20 10° SSE
ARIANE 5 R/B 3.0 15:13:07 10° S 15:18:13 68° WSW 15:23:17 10° NNW
SJ-6F 4.4 15:14:32 10° SSE 15:18:28 87° WSW 15:22:25 10° NNW
Cosmos 2061 Rocket 4.1 15:16:11 10° N 15:22:34 65° ENE 15:28:51 10° SSE
NOSS 0 Rocket 4.0 15:16:19 10° NW 15:22:38 86° ENE 15:28:52 10° SE
BREEZE-M DEB (TANK) 4.0 15:18:44 10° W 15:22:55 44° SSW 15:28:28 10° SE
Meteor 1-28 Rocket 4.0 15:20:35 10° N 15:23:47 46° WNW 15:26:58 10° SW
SL-16 R/B 3.2 15:18:30 10° NNE 15:24:35 59° WNW 15:30:38 10° SW
CZ-4C R/B 2.5 15:27:15 10° S 15:31:12 34° ESE 15:35:43 12° ENE
COSMOS 2428 3.1 15:26:35 10° NW 15:32:19 72° WSW 15:38:00 10° SSE
Cosmos 489 Rocket 4.5 15:26:42 10° SSW 15:32:54 83° ESE 15:39:11 10° NNE
Cosmos 2084 Rocket 4.5 15:29:09 10° W 15:33:01 36° NNW 15:36:45 11° NE
Cosmos 2151 Rocket 3.6 15:28:59 10° NNW 15:33:31 87° E 15:38:01 10° SSE
CARTOSAT-1 3.6 15:29:30 10° SE 15:33:35 51° ENE 15:37:41 10° N
Cosmos 1980 3.7 15:28:17 10° NNW 15:33:58 69° NE 15:39:36 10° SE
NOSS 3-4 (A) 3.7 15:29:58 10° NW 15:36:18 73° NNE 15:43:50 10° ESE
NOSS 3-4 (C) 3.7 15:30:13 10° NW 15:36:35 73° NNE 15:44:08 10° ESE
Cosmos 1607 4.2 15:31:59 10° SSW 15:37:51 50° SE 15:43:46 10° NE
Cosmos 2237 Rocket 2.2 15:33:48 10° NNW 15:39:29 70° NE 15:45:10 10° SE
SPOT 5 4.0 15:35:48 10° ESE 15:39:47 25° NE 15:43:54 10° N
DNEPR-1 R/B 4.0 15:36:22 10° NW 15:40:51 54° NNE 15:45:32 13° ESE
Cosmos 2292 Rocket 3.0 15:40:35 10° SSW 15:43:27 65° WNW 15:46:39 10° N
Cosmos 1455 Rocket 3.2 15:45:52 10° N 15:50:03 47° ENE 15:54:12 10° SSE
Cosmos 1782 3.8 15:49:02 10° NNE 15:51:54 22° ENE 15:52:09 21° ENE
SPOT 1/Viking Rocket 4.4 15:47:20 10° S 15:52:20 52° W 15:57:22 10° NNW
SL-19 R/B 4.4 15:46:51 10° SSE 15:52:59 79° ENE 15:58:53 10° NNW
ATLAS 2AS CENTAUR R/B 3.3 15:47:28 10° W 15:54:14 53° NNW 16:00:16 13° NE
Cosmos 1975 Rocket 4.2 15:51:32 10° SE 15:54:47 21° E 15:55:06 21° E
YAOGAN 1 3.0 15:53:53 10° S 15:58:06 65° WSW 16:02:23 10° NNW
YAOGAN 3 4.4 15:58:09 10° SSE 16:02:21 78° ENE 16:06:36 10° NNW
Okean 2 Rocket 3.5 15:58:02 10° NNW 16:02:26 67° W 16:06:46 10° S
Okean 1 Rocket 3.3 15:58:47 10° NNW 16:03:13 75° W 16:07:34 10° S
SL-16 R/B 2.7 15:58:15 10° NNW 16:03:38 42° NE 16:06:58 21° ESE
Cosmos 2221 Rocket 3.6 15:59:34 10° S 16:03:59 64° E 16:08:28 10° NNE
ARIANE 6 FM1 Upper Stage 3.0 16:02:59 10° NW 16:06:49 45° NNE 16:08:26 28° ENE
Cosmos 2227 Rocket 3.4 16:04:57 10° SSE 16:08:24 20° ESE 16:08:24 20° ESE
SJ-6B 2.4 16:05:48 10° SSE 16:09:12 58° ENE 16:12:36 10° N
Cosmos 1867 3.6 16:06:33 10° SW 16:12:01 86° NW 16:16:24 16° NE
Sich 1 Rocket 4.1 16:09:09 10° NNW 16:13:40 65° W 16:18:11 10° S
COSMO-SKYMED 1 2.3 16:09:31 10° NNE 16:13:41 79° ESE 16:17:47 10° SSW
USA 267 3.2 16:09:48 20° ENE 16:14:36 87° SSE 16:21:11 10° WSW
Cosmos 2228 3.1 16:11:01 10° N 16:15:05 48° ENE 16:18:12 16° SE
Lacrosse 5 rocket 0.8 16:11:47 10° WSW 16:15:17 79° SSE 16:16:32 38° ENE
USA 290 2.9 16:14:09 10° SW 16:17:17 53° WNW 16:19:48 15° NNE
PSLV R/B 4.0 16:15:04 10° S 16:19:09 60° WSW 16:23:13 10° NNW
SKYMED 2 4.2 16:17:45 10° N 16:22:02 58° WNW 16:26:18 10° SSW
ADEOS 4.3 16:21:22 29° E 16:22:39 32° ENE 16:27:15 10° N
Cosmos 2346 Rocket 4.4 16:16:24 10° S 16:22:40 86° E 16:28:58 10° NNE
ATLAS CENTAUR R/B 2.6 16:23:02 10° NNW 16:24:45 16° N 16:24:45 16° N
Resurs 01 Rocket 1.8 16:21:24 10° S 16:25:48 72° WSW 16:30:13 10° NNW
ERS-1 Rocket 3.7 16:26:50 30° ENE 16:27:20 31° ENE 16:31:41 10° N
Meteor 1-31 Rocket 2.6 16:28:53 50° ENE 16:28:53 50° ENE 16:32:14 10° N
CZ-4B R/B 3.7 16:30:46 33° E 16:31:57 37° ENE 16:36:46 10° N
Cosmos 2344 4.3 16:26:01 10° SSE 16:31:59 25° ESE 16:32:00 25° ESE
Terra 2.8 16:33:51 28° NE 16:33:51 28° NE 16:37:27 10° N
Cosmos 1025 Rocket 3.6 16:30:04 10° SSW 16:34:19 58° WNW 16:38:38 10° N
Cosmos 1570 Rocket 4.1 16:30:03 10° S 16:35:09 53° ESE 16:38:26 22° NE
Cosmos 1447 Rocket 4.5 16:29:37 10° SSW 16:35:46 85° W 16:41:58 10° N
Aureole 3 Rocket 3.8 16:31:27 10° NNW 16:35:47 47° W 16:39:08 10° SSW
CZ-4B DEB 4.3 16:33:52 26° SE 16:36:43 52° ENE 16:42:01 10° N
CZ-4 R/B 1.7 16:38:06 41° NE 16:38:06 41° NE 16:41:03 10° N
NOSS 3-3 (C) 3.7 16:37:46 10° SW 16:43:09 73° SE 16:46:36 28° NE
Cosmos 44 Rocket 4.2 16:40:22 10° S 16:43:54 31° SE 16:43:54 31° SE
DMSP B5D1-3 4.4 16:40:12 10° NNE 16:45:21 86° ESE 16:50:28 10° SSW
Cosmos 2082 Rocket 4.3 16:42:44 10° NW 16:46:31 18° N 16:50:15 10° NNE
RESURS DK-1 3.8 16:44:28 10° NNW 16:47:08 24° NNE 16:47:08 24° NNE
Cosmos 1375 Rocket 4.4 16:41:27 10° SW 16:47:51 83° SE 16:52:05 24° NE
CSL-04 Debris 4.1 16:44:36 20° SSE 16:48:26 72° ENE 16:53:52 10° NNW
CSL-04 Rocket 3.5 16:47:55 18° SSE 16:51:52 80° ENE 16:57:11 10° NNW
Cosmos 2297 Rocket 2.1 16:47:36 10° SSW 16:53:15 75° ESE 16:56:42 25° NE
Cosmos 2208 Rocket 4.0 16:48:25 10° S 16:53:31 55° ESE 16:54:40 45° ENE
Feng Yun 1-1 Rocket 4.3 16:50:50 32° SE 16:53:32 63° ENE 16:59:23 10° NNW
Cosmos 1943 3.7 16:48:40 10° NNW 16:54:04 41° NE 16:54:48 39° ENE
Cosmos 2034 Rocket 3.8 16:49:57 10° N 16:56:09 72° ENE 17:00:46 19° SSE
Cosmos 1816 Rocket 4.4 16:51:18 10° S 16:57:21 62° E 17:03:29 10° NNE
Okean-O 4.4 17:00:00 19° NNE 17:00:00 19° NNE 17:01:39 10° N
Okean O Rocket 3.3 17:06:12 21° NNE 17:06:12 21° NNE 17:07:59 10° N
Cosmos 1634 Rocket 4.1 16:59:17 10° N 17:05:30 53° ENE 17:06:30 48° ESE
Cosmos 773 Rocket 3.9 17:00:17 10° SSW 17:05:31 70° ESE 17:06:58 47° NE
NOSS 3-3 (A) 3.9 17:06:01 10° SW 17:11:30 80° NW 17:14:17 36° NE
BREEZE-M DEB (TANK) 4.4 16:57:38 10° WSW 17:15:10 45° S 17:17:10 37° SE
PAYLOAD B 4.1 17:13:31 46° SSE 17:15:18 82° ENE 17:20:56 10° NNW
SPOT 5 3.1 17:14:50 30° S 17:17:15 70° WSW 17:22:23 10° NNW
CZ-4C R/B 2.2 17:14:21 10° WSW 17:18:59 66° NNW 17:20:41 43° NNE
Cosmos 836 Rocket 4.5 17:15:36 10° SSW 17:20:53 82° WNW 17:23:15 34° NNE
Cosmos 1544 Rocket 3.7 17:17:57 10° NNW 17:21:52 69° NW 17:21:52 69° NW
Cosmos 2237 Rocket 4.0 17:18:19 10° NW 17:23:08 29° WSW 17:27:57 10° SSW
Cosmos 1607 4.3 17:19:01 10° WSW 17:25:05 59° NNW 17:27:53 32° NNE
Cosmos 1782 3.9 17:23:24 10° NNW 17:26:14 38° WNW 17:26:14 38° WNW
IRS-1A Rocket 4.3 17:29:21 64° NE 17:29:21 64° NE 17:34:47 10° NNW
Cosmos 2279 Rocket 4.1 17:24:57 10° N 17:30:25 53° NE 17:30:25 53° NE
Cosmos 1975 Rocket 3.5 17:27:51 10° SSW 17:32:08 58° WNW 17:36:26 10° N
Cosmos 1833 Rocket 4.3 17:37:45 10° NNW 17:41:44 22° NNE 17:41:44 22° NNE
ARIANE 6 FM1 Upper Stage 4.2 17:42:04 10° WNW 17:44:27 33° WNW 17:44:27 33° WNW
ATLAS 2AS CENTAUR R/B 3.4 17:39:52 10° WNW 17:46:21 42° N 17:47:40 38° NNE
SL-16 R/B 2.7 17:42:26 10° NW 17:47:57 54° WSW 17:48:52 49° SSW
Lacrosse 5 rocket 3.5 17:48:41 10° W 17:49:58 21° WNW 17:49:58 21° WNW
Cosmos 2227 Rocket 2.9 17:46:38 10° SSW 17:50:18 42° SSW 17:50:18 42° SSW
Cosmos 972 Rocket 4.5 17:50:17 10° NNW 17:54:07 54° NW 17:54:07 54° NW
USA 267 3.1 17:57:08 73° NE 17:57:39 78° N 18:04:12 10° W
ADEOS 4.1 18:02:06 55° W 18:02:06 55° W 18:07:05 10° NNW
ERS-1 Rocket 3.8 18:06:41 48° WNW 18:06:41 48° WNW 18:10:46 10° NNW
Terra 3.2 18:12:27 35° NW 18:12:27 35° NW 18:15:22 10° NNW
CZ-4 R/B 3.9 18:13:06 18° WNW 18:13:06 18° WNW 18:14:41 10° NW
CZ-4B R/B 3.9 18:12:36 49° W 18:12:36 49° W 18:17:36 10° NNW
Cosmos 2082 Rocket 4.2 18:28:50 10° NNW 18:32:04 19° N 18:32:04 19° N
Cosmos 2297 Rocket 3.6 18:32:42 10° WSW 18:37:49 33° NW 18:38:33 32° NNW
Cosmos 1943 4.3 18:32:45 10° NW 18:36:36 41° WNW 18:36:36 41° WNW
Okean O Rocket 4.3 18:43:26 16° NNW 18:43:26 16° NNW 18:44:23 10° NNW
Cosmos 2344 4.3 18:37:46 10° SW 18:42:04 38° SW 18:42:04 38° SW
CZ-4C R/B 4.0 19:03:10 10° WNW 19:05:39 26° NW 19:05:39 26° NW
ATLAS 2AS CENTAUR R/B 4.1 19:31:29 10° NW 19:35:05 33° NW 19:35:05 33° NW
ACS3 Solar Sail 4.3 22:44:00 10° NNE 22:44:52 14° NNE 22:44:52 14° NNE
CENTAUR R/B 4.0 23:44:21 37° NE 23:44:21 37° NE 23:49:01 10° NE
SL-16 R/B 4.4 23:55:35 22° N 23:55:35 22° N 23:57:52 10° N
